Location: Waco, TX
(31.5480°N, 97.1670°W)
Time: 00:29:05
(UTC-06:00)

ISS - Pass Details

Date: 14 December 2017
Orbit: 403 x 407 km, 51.6° (Epoch: 12 December)

Event Time Altitude Azimuth Distance (km) Brightness Sun altitude
Rises 19:33:19 0° 311° (NW) 2,322 0.5 -26.2°
Reaches altitude 10° 19:35:25 10° 307° (NW) 1,459 -0.5 -26.6°
Enters shadow 19:36:06 15° 304° (NW) 1,189 -1.0 -26.7°
Maximum altitude 19:38:38 57° 228° (SW) 479 - -27.3°
Drops below altitude 10° 19:41:49 10° 148° (SSE) 1,449 - -27.9°
Sets 19:43:55 0° 144° (SE) 2,303 - -28.4°
